Location: Unspecified
(0.0000°N, 0.0000°E)
Time: 05:32:00
(UTC+00:00)

MANDRAKE 2 BAKER - Visible Passes

Search period start: 14 February 2026 00:00
Search period end: 24 February 2026 00:00
Orbit: 405 x 412 km, 97.7° (Epoch: 10 February)

Date Brightness Start Highest point End Pass type
(mag) Time Alt. Az. Time Alt. Az. Time Alt. Az.
14 Feb ? 05:42:28 10° S 05:45:33 55° WSW 05:48:37 10° NNW visible
15 Feb ? 04:55:54 10° ESE 04:57:53 16° ENE 04:59:52 10° NE visible
16 Feb ? 05:38:40 10° S 05:41:48 70° WSW 05:44:54 10° NNW visible
17 Feb ? 04:52:28 10° ESE 04:54:03 13° ENE 04:55:36 10° NE visible
18 Feb ? 05:34:43 10° S 05:37:52 88° WSW 05:40:58 10° NNW visible
19 Feb ? 04:49:12 10° E 04:50:02 11° ENE 04:50:51 10° ENE visible
20 Feb ? 05:30:38 10° SSE 05:33:45 73° ENE 05:36:51 10° N visible
22 Feb ? 05:26:24 10° SSE 05:29:28 56° ENE 05:32:31 10° N visible
